Location: Betz
(49.1556°N, 2.9558°E)
Time: 22:35:55
(UTC+00:00)

Terra - Pass Details

Date: 18 September 2019
Orbit: 701 x 703 km, 98.2° (Epoch: 14 October)

Event Time Altitude Azimuth Distance (km) Brightness Sun altitude
Exits shadow 20:06:33 16° 50° (NE) 1,824 3.7 -21.2°
Drops below altitude 10° 20:08:57 10° 20° (NNE) 2,182 4.5 -21.6°
Sets 20:12:01 0° 359° (N) 3,105 5.6 -22.0°
